This is the latest recevied weather packets stored in our database for station/object WO4U-13. If no packets are shown the sender has not sent any weather packets the latest 10 day(s).
| Time | Temp. | Humidity | Pressure | Rain* | Wind** | Luminosity | Snow |
|---|---|---|---|---|---|---|---|
| 1787587382 | 24.44° C | 71% | 0 hPa | 0 mm | 0 m/s | - | - |
| 1787587082 | 23.89° C | 69% | 0 hPa | 0 mm | 0 m/s | - | - |
| 1787586814 | 23.89° C | 74% | 0 hPa | 0 mm | 0 m/s | - | - |
| 1787586783 | 23.89° C | 74% | 0 hPa | 0 mm | 0 m/s | - | - |
| 1787586182 | 23.33° C | 80% | 0 hPa | 0 mm | 0 m/s | - | - |
| 1787585624 | 22.22° C | 81% | 0 hPa | 0 mm | 0 m/s | - | - |
| 1787585586 | 22.22° C | 81% | 0 hPa | 0 mm | 0 m/s | - | - |
| 1787585413 | 22.22° C | 86% | 0 hPa | 0 mm | 0 m/s | - | - |
| 1787585283 | 22.22° C | 86% | 0 hPa | 0 mm | 0 m/s | - | - |
| 1787584682 | 21.67° C | 90% | 0 hPa | 0 mm | 0 m/s | - | - |
| 1787583782 | 20.56° C | 99% | 0 hPa | 0 mm | 0 m/s | - | - |
| 1787579917 | 18.33° C | 99% | 0 hPa | 0 mm | 0 m/s | - | - |
| 1787579886 | 18.33° C | 99% | 0 hPa | 0 mm | 0 m/s | - | - |
| 1787579784 | 18.33° C | 99% | 0 hPa | 0 mm | 0 m/s | - | - |
| 1787579583 | 18.33° C | 99% | 0 hPa | 0 mm | 0 m/s | - | - |
| 1787579285 | 17.78° C | 99% | 0 hPa | 0 mm | 0 m/s | - | - |
| 1787578116 | 17.78° C | 99% | 0 hPa | 0 mm | 0 m/s | - | - |
| 1787578084 | 17.78° C | 99% | 0 hPa | 0 mm | 0 m/s | - | - |
| 1787577486 | 16.67° C | 99% | 0 hPa | 0 mm | 0 m/s | - | - |
| 1787576882 | 16.11° C | 99% | 0 hPa | 0 mm | 0 m/s | - | - |
| 1787576581 | 16.11° C | 99% | 0 hPa | 0 mm | 0 m/s | - | - |
| 1787575986 | 15.56° C | 99% | 0 hPa | 0 mm | 0 m/s | - | - |
| 1787575688 | 15° C | 99% | 0 hPa | 0 mm | 0 m/s | - | - |
| 1787574482 | 14.44° C | 99% | 0 hPa | 0 mm | 0 m/s | - | - |
| 1787574334 | 14.44° C | 99% | 0 hPa | 0 mm | 0 m/s | - | - |
* Rain latest hour (hover to see other rain measurements)
** Current wind speed in m/s (hover to see current wind gust speed)